W4CKA Weather Reports


Display with metric or nautical units.
time (UTC)temp
F
wind
direction
speed
MPH
gust
MPH
rain 1hr
in
rain 24hr
in
rain mn
in
humidity
%
barometer
mb
20260906075648 70 90 2.0 3.0 0.00 0.00 0.00 99 1055.0
20260906074643 70 106 4.0 4.0 0.00 0.00 0.00 99 1054.9
20260906073643 70 85 2.0 3.0 0.00 0.00 0.00 99 1054.8
20260906072640 69 90 2.0 3.0 0.00 0.00 0.00 99 1054.8
20260906071638 69 68 2.0 2.0 0.00 0.00 0.00 99 1055.0
20260906070634 70 40 0.0 2.0 0.00 0.00 0.00 99 1054.9
20260906065629 70 0 0.0 0.0 0.00 0.00 0.00 99 1055.2
20260906064626 70 6 0.0 1.0 0.00 0.00 0.00 99 1055.0
20260906063621 70 294 0.0 0.0 0.00 0.00 0.00 99 1055.3
20260906062619 70 279 0.0 1.0 0.00 0.00 0.00 99 1055.4
20260906061614 70 337 0.0 1.0 0.00 0.00 0.00 99 1055.5
20260906060610 70 6 0.0 0.0 0.00 0.00 0.00 99 1055.3
20260906055609 71 320 2.0 2.0 0.00 0.00 0.00 99 1055.2
20260906054604 71 15 0.0 0.0 0.00 0.00 0.00 99 1055.4
20260906053601 71 95 2.0 4.0 0.00 0.00 0.00 99 1055.8
20260906052558 70 63 1.0 2.0 0.00 0.00 0.00 99 1055.7
20260906051556 71 12 2.0 2.0 0.00 0.00 0.00 99 1055.8
20260906050552 71 337 0.0 0.0 0.00 0.00 0.00 99 1056.0
20260906045551 71 8 0.0 1.0 0.00 0.00 0.00 99 1055.8
20260906044548 71 0 0.0 1.0 0.00 0.00 0.00 99 1055.9
20260906043545 71 53 2.0 2.0 0.00 0.00 0.00 99 1055.9
20260906042539 71 0 0.0 0.0 0.00 0.00 0.00 99 1055.7
20260906041536 72 286 1.0 1.0 0.00 0.00 0.00 99 1055.5
20260906040532 72 15 0.0 1.0 0.00 0.00 0.00 99 1055.5
20260906035528 72 8 0.0 0.0 0.00 0.59 0.59 99 1055.5
20260906034524 72 0 0.0 0.0 0.00 0.59 0.59 99 1055.5
20260906033520 73 74 1.0 2.0 0.00 0.59 0.59 99 1055.5
20260906032518 73 90 2.0 3.0 0.00 0.59 0.59 99 1055.8
20260906031514 72 49 0.0 3.0 0.00 0.59 0.59 99 1055.7
20260906030509 72 95 2.0 3.0 0.00 0.59 0.59 99 1055.9
20260906025508 72 96 3.0 4.0 0.00 0.59 0.59 99 1055.9
20260906024507 73 68 2.0 3.0 0.00 0.59 0.59 99 1055.5
20260906023504 73 66 1.0 2.0 0.00 0.59 0.59 99 1055.7
20260906022459 73 57 0.0 3.0 0.00 0.59 0.59 99 1055.8
20260906021455 72 15 0.0 1.0 0.00 0.59 0.59 99 1055.9
20260906020450 73 5 2.0 2.0 0.00 0.59 0.59 99 1055.8
20260906015449 73 285 0.0 0.0 0.00 0.59 0.59 99 1055.8
20260906014449 73 23 0.0 1.0 0.00 0.59 0.59 99 1055.7
20260906013446 73 7 0.0 0.0 0.00 0.59 0.59 99 1055.5
20260906012442 73 0 1.0 2.0 0.00 0.59 0.59 99 1055.4
20260906011437 74 0 0.0 0.0 0.00 0.59 0.59 99 1055.3
20260906010434 74 0 0.0 0.0 0.00 0.59 0.59 98 1055.0
20260906005429 74 0 0.0 0.0 0.00 0.59 0.59 97 1054.9
20260906004428 75 345 0.0 0.0 0.00 0.59 0.59 97 1055.0
20260906003425 75 15 0.0 0.0 0.00 0.59 0.59 97 1054.8
20260906002425 75 23 1.0 2.0 0.00 0.59 0.59 95 1054.8
20260906001421 76 270 0.0 0.0 0.00 0.59 0.59 94 1054.7
20260906000418 76 270 0.0 0.0 0.00 0.59 0.59 93 1054.5
20260905235412 77 270 0.0 0.0 0.00 0.59 0.59 92 1054.6
20260905234409 77 262 0.0 0.0 0.00 0.59 0.59 91 1054.7
20260905233404 78 262 0.0 1.0 0.00 0.59 0.59 90 1054.5
20260905232400 79 166 0.0 0.0 0.00 0.59 0.59 88 1054.6
20260905231355 80 166 0.0 0.0 0.00 0.59 0.59 87 1054.5
20260905230355 80 166 0.0 0.0 0.00 0.59 0.59 85 1054.6
20260905225350 81 166 0.0 0.0 0.00 0.59 0.59 84 1054.6
20260905224347 82 66 0.0 0.0 0.00 0.59 0.59 80 1054.8
20260905223345 83 66 0.0 0.0 0.00 0.59 0.59 79 1054.7
20260905222344 83 66 0.0 0.0 0.00 0.59 0.59 80 1054.8
20260905221343 85 254 0.0 0.0 0.00 0.59 0.59 77 1054.8
20260905220341 86 71 2.0 3.0 0.00 0.59 0.59 74 1055.0
20260905215336 86 32 0.0 0.0 0.00 0.59 0.59 74 1055.1
20260905214332 86 151 0.0 3.0 0.00 0.59 0.59 76 1054.8
20260905213329 87 209 0.0 2.0 0.00 0.59 0.59 75 1054.9
20260905212324 87 270 1.0 1.0 0.00 0.59 0.59 75 1054.9
20260905211319 87 270 0.0 4.0 0.00 0.59 0.59 69 1054.9
20260905210315 89 90 0.0 1.0 0.00 0.59 0.59 72 1055.0
20260905205315 86 319 2.0 4.0 0.00 0.59 0.59 73 1054.9
20260905204311 87 286 1.0 1.0 0.00 0.59 0.59 77 1054.9
20260905203305 86 150 0.0 5.0 0.00 0.59 0.59 75 1055.1
20260905202301 87 278 0.0 3.0 0.00 0.59 0.59 70 1055.1
20260905201258 86 198 2.0 5.0 0.00 0.59 0.59 73 1055.1
20260905200255 85 270 0.0 1.0 0.00 0.59 0.59 74 1055.4
20260905195253 84 70 2.0 4.0 0.00 0.59 0.59 72 1055.7
20260905194248 84 350 2.0 3.0 0.00 0.59 0.59 73 1055.8
20260905193243 85 30 3.0 3.0 0.00 0.59 0.59 72 1056.1
20260905192241 82 21 0.0 4.0 0.00 0.59 0.59 74 1056.2
20260905191238 82 90 3.0 5.0 0.00 0.59 0.59 77 1056.3
20260905190236 80 81 4.0 6.0 0.00 0.59 0.59 79 1056.3
20260905185236 81 34 5.0 5.0 0.00 0.59 0.59 81 1056.7
20260905184235 81 59 5.0 5.0 0.00 0.59 0.59 81 1057.1
20260905183231 80 78 3.0 5.0 0.00 0.59 0.59 85 1057.1
20260905182230 78 0 4.0 5.0 0.00 0.59 0.59 88 1057.3
20260905181224 76 39 4.0 7.0 0.00 0.59 0.59 92 1057.5
20260905180220 74 52 4.0 6.0 0.00 0.59 0.59 98 1057.8
20260905175215 72 95 2.0 2.0 0.00 0.59 0.59 99 1058.2
20260905174212 72 21 3.0 5.0 0.00 0.59 0.59 99 1058.4
20260905173209 72 11 2.0 3.0 0.00 0.59 0.59 99 1058.6
20260905172209 72 45 12.0 12.0 0.00 0.59 0.59 99 1058.6
20260905171206 71 45 12.0 12.0 0.00 0.59 0.59 99 1058.6
20260905170203 70 45 12.0 12.0 0.00 0.59 0.59 99 1058.4
20260905165158 70 45 12.0 12.0 0.00 0.59 0.59 99 1058.4
20260905164159 69 45 12.0 12.0 0.00 0.59 0.59 99 1058.5
20260905163157 68 45 12.0 12.0 0.00 0.59 0.59 99 1058.5
20260905162152 68 45 12.0 12.0 0.00 0.59 0.59 99 1058.8
20260905161151 68 45 12.0 12.0 0.02 0.59 0.59 99 1058.8
20260905160149 68 45 12.0 12.0 0.64 0.58 0.58 99 1058.7
20260905155149 68 45 12.0 12.0 2.36 0.44 0.44 98 1059.6
20260905154145 70 98 9.0 27.0 0.28 0.05 0.05 93 1060.0
20260905153142 83 79 3.0 5.0 0.00 0.00 0.00 83 1058.2
20260905152137 87 306 1.0 2.0 0.00 0.00 0.00 80 1057.6
20260905151134 86 303 2.0 3.0 0.00 0.00 0.00 79 1057.4
20260905150133 85 0 0.0 3.0 0.00 0.00 0.00 82 1057.2
20260905145131 84 23 0.0 3.0 0.00 0.00 0.00 80 1057.4
20260905144125 85 276 0.0 2.0 0.00 0.00 0.00 81 1057.4
20260905143125 85 14 0.0 2.0 0.00 0.00 0.00 79 1057.6
20260905142124 84 54 0.0 0.0 0.00 0.00 0.00 80 1057.6
20260905141121 85 83 1.0 3.0 0.00 0.00 0.00 78 1057.7
20260905140121 83 342 0.0 2.0 0.00 0.00 0.00 82 1057.7
20260905135117 81 53 0.0 3.0 0.00 0.00 0.00 84 1057.9
20260905134116 80 101 2.0 2.0 0.00 0.00 0.00 86 1057.9
20260905133112 79 82 0.0 2.0 0.00 0.00 0.00 89 1057.9
20260905132113 76 26 0.0 3.0 0.00 0.00 0.00 94 1058.0
20260905131109 75 35 0.0 0.0 0.00 0.00 0.00 99 1057.9
20260905130109 72 69 1.0 2.0 0.00 0.00 0.00 99 1058.0
20260905125104 71 352 0.0 0.0 0.00 0.00 0.00 99 1058.2
20260905124102 70 48 0.0 2.0 0.00 0.00 0.00 99 1058.2
20260905123101 70 77 1.0 2.0 0.00 0.00 0.00 99 1058.2
20260905122100 70 15 0.0 1.0 0.00 0.00 0.00 99 1058.4
20260905121056 69 29 0.0 2.0 0.00 0.00 0.00 99 1058.1
20260905120057 69 0 0.0 0.0 0.00 0.00 0.00 99 1058.0
20260905115056 69 84 1.0 2.0 0.00 0.00 0.00 99 1057.9
20260905114055 69 49 0.0 2.0 0.00 0.00 0.00 99 1057.6
20260905113051 69 84 2.0 3.0 0.00 0.00 0.00 99 1057.7
20260905112048 68 66 1.0 2.0 0.00 0.00 0.00 99 1057.7
20260905111048 68 66 0.0 3.0 0.00 0.00 0.00 99 1057.2
20260905110042 68 29 0.0 1.0 0.00 0.00 0.00 99 1057.2
20260905105041 68 74 0.0 2.0 0.00 0.00 0.00 99 1057.2
20260905104037 69 8 0.0 1.0 0.00 0.00 0.00 99 1057.2
20260905103034 69 74 0.0 1.0 0.00 0.00 0.00 99 1057.3
20260905102032 69 52 2.0 2.0 0.00 0.00 0.00 99 1057.1
20260905101029 69 77 0.0 2.0 0.00 0.00 0.00 99 1057.0
20260905100025 69 68 2.0 2.0 0.00 0.00 0.00 99 1057.0
20260905095021 69 71 2.0 3.0 0.00 0.00 0.00 99 1057.0
20260905094021 69 75 1.0 2.0 0.00 0.00 0.00 99 1057.2
20260905093018 69 81 0.0 2.0 0.00 0.00 0.00 99 1057.0
20260905092014 69 66 1.0 2.0 0.00 0.00 0.00 99 1056.9
20260905091013 69 60 2.0 3.0 0.00 0.00 0.00 99 1056.7
20260905090008 69 23 0.0 0.0 0.00 0.00 0.00 99 1056.9
20260905085008 69 337 0.0 0.0 0.00 0.00 0.00 99 1056.7
20260905084009 69 23 0.0 1.0 0.00 0.00 0.00 99 1056.8
20260905083006 69 8 0.0 1.0 0.00 0.00 0.00 99 1056.9
20260905082003 70 325 1.0 1.0 0.00 0.00 0.00 99 1056.9
20260905081003 70 286 0.0 0.0 0.00 0.00 0.00 99 1056.9
20260905080002 70 0 0.0 0.0 0.00 0.00 0.00 99 1057.0